Regional Weather Roundup
Issued by NWS Cleveland, OH

Home | Current Version | Previous Version | Text Only | Print | Product List | Glossary Off
Versions: 1 2 3 4 5 6 7 8 9 10 11 12 13 14 15 16 17 18 19 20 21 22 23 24 25 26 27 28 29 30 31 32 33 34 35 36 37 38 39 40 41 42 43 44 45 46 47 48 49 50

116
ASUS41 KCLE 262300
RWRCLE
OHIO REGIONAL WEATHER ROUNDUP
NATIONAL WEATHER SERVICE WILMINGTON, OH
700 PM EDT WED JUL 26 2017

NOTE: "FAIR" INDICATES FEW OR NO CLOUDS BELOW 12,000 FEET WITH NO
SIGNIFICANT WEATHER AND/OR OBSTRUCTIONS TO VISIBILITY.

OHZ001>008-015>018-024>027-034-035-043-044-270000-
   NORTHWEST OHIO

CITY           SKY/WX    TMP DP  RH WIND       PRES   REMARKS
DEFIANCE       FAIR      79  61  53 SW5       30.03F
FINDLAY        FAIR      80  62  54 SW5       30.04F
TOLEDO EXPRESS FAIR      78  63  59 CALM      30.05S
TOLEDO EXEC    FAIR      81  62  52 VRB3      30.05F
LIMA           FAIR      79  64  60 SW5       30.06S
$$

OHZ009>014-019>023-028>033-038-089-270000-
   NORTHEAST OHIO

CITY           SKY/WX    TMP DP  RH WIND       PRES   REMARKS
CLE-HOPKINS    PTSUNNY   78  66  66 N7        30.08S
CLE-LAKEFRONT  FAIR      75  64  68 N8        30.06S
CUY CO. ARPT   MOSUNNY   77  64  65 NE6         N/A
LORAIN-ELYRIA  FAIR      79  59  50 CALM      30.07S
ASHTABULA      FAIR      73  63  70 VRB3      30.10S
AKRON-CANTON   PTSUNNY   80  61  52 W3        30.08R
WOOSTER        NOT AVBL
MANSFIELD      FAIR      78  64  61 SW5       30.09S
YOUNGSTOWN     CLOUDY    79  62  56 VRB3      30.09R
$$

OHZ042-051>053-060>062-070>072-077>081-270000-
  SOUTHWEST OHIO

CITY           SKY/WX    TMP DP  RH WIND       PRES   REMARKS
CINC-COVINGTON CLOUDY    84  69  60 CALM      30.04F
CINC-LUNKEN    FAIR      82  71  69 SE5       30.03S
HAMILTON       FAIR      82  69  64 W5        30.04F
DAYTON         NOT AVBL
WRIGHT-PAT AFB NOT AVBL
DAYTON GENERAL FAIR      80  64  58 S5        30.04F
WILMINGTON     FAIR      78  67  68 S5        30.06S
$$

OHZ036-037-039>041-045>050-054>059-063>069-073>076-082>088-270000-
  CENTRAL AND SOUTHEAST OHIO

CITY           SKY/WX    TMP DP  RH WIND       PRES   REMARKS
COLUMBUS       CLOUDY    79  63  57 VRB6      30.05F
OSU AIRPORT    FAIR      79  64  60 W6        30.06F
BOLTON FIELD   SUNNY     77  64  65 CALM      30.07S
RICKENBACK AFB NOT AVBL
NEWARK         FAIR      79  62  56 CALM      30.05F
MARION         FAIR      78  61  55 SW5       30.07S
LANCASTER      FAIR      78  65  63 CALM      30.06F
ZANESVILLE     FAIR      79  64  60 CALM      30.06F
NEW PHILLY     FAIR      79  66  64 CALM      30.07F
$$




USA.gov is the U.S. government's official web portal to all federal, state and local government web resources and services.